Location: Elmsmere
(40.9284°N, 73.8207°W)
Time: 14:14:05
(UTC+00:00)

STARLINK-2691 - Pass Details

Date: 26 June 2021
Orbit: 546 x 548 km, 53.1° (Epoch: 27 July)

Event Time Altitude Azimuth Distance (km) Brightness Sun altitude
Exits shadow 06:21:33 24° 111° (ESE) 1,148 5.2 -22.9°
Drops below altitude 10° 06:24:11 10° 74° (ENE) 1,809 6.7 -22.7°
Sets 06:26:40 0° 61° (ENE) 2,704 7.9 -22.5°
